Time,TemperatureF,DewpointF,PressureIn,WindDirection,WindDirectionDegrees,WindSpeedMPH,WindSpeedGustMPH,Humidity,HourlyPrecipIn,Conditions,Clouds,dailyrainin,SoftwareType,DateUTC
2013-09-19 00:01:00,47.4,46.3,30.15,ENE,62,0.0,0.0,96,0.00,CLR,,0.00,WeatherDisplay:10.37,2013-09-19 04:01:00,
2013-09-19 00:03:00,46.6,45.5,30.15,ENE,62,0.0,0.0,96,0.00,CLR,,0.00,WeatherDisplay:10.37,2013-09-19 04:03:00,
2013-09-19 00:09:00,45.5,44.4,30.15,ENE,62,0.0,0.0,96,0.00,CLR,,0.00,WeatherDisplay:10.37,2013-09-19 04:09:00,
2013-09-19 00:14:00,45.1,43.8,30.14,ENE,62,0.0,0.0,95,0.00,CLR,,0.00,WeatherDisplay:10.37,2013-09-19 04:14:00,
2013-09-19 00:19:00,47.4,46.0,30.14,ENE,62,0.0,0.0,95,0.00,CLR,,0.00,WeatherDisplay:10.37,2013-09-19 04:19:00,
2013-09-19 00:24:00,45.6,44.3,30.14,ENE,62,0.0,0.0,95,0.00,CLR,,0.00,WeatherDisplay:10.37,2013-09-19 04:24:00,
2013-09-19 00:29:00,45.9,44.5,30.14,ENE,62,0.0,0.0,95,0.00,CLR,,0.00,WeatherDisplay:10.37,2013-09-19 04:29:00,
2013-09-19 00:34:00,45.2,43.9,30.14,ENE,62,0.0,0.0,95,0.00,CLR,,0.00,WeatherDisplay:10.37,2013-09-19 04:34:00,
2013-09-19 00:39:00,45.1,43.8,30.14,ENE,62,0.0,0.0,95,0.00,CLR,,0.00,WeatherDisplay:10.37,2013-09-19 04:39:00,
2013-09-19 00:44:00,48.3,46.9,30.14,ENE,62,0.0,0.0,95,0.00,CLR,,0.00,WeatherDisplay:10.37,2013-09-19 04:44:00,
2013-09-19 00:49:00,45.2,43.9,30.14,ENE,62,0.0,0.0,95,0.00,CLR,,0.00,WeatherDisplay:10.37,2013-09-19 04:49:00,
2013-09-19 00:54:00,45.8,44.4,30.14,ENE,62,0.0,0.0,95,0.00,CLR,,0.00,WeatherDisplay:10.37,2013-09-19 04:54:00,
2013-09-19 00:59:00,45.1,43.8,30.14,ENE,62,0.0,0.0,95,0.00,CLR,,0.00,WeatherDisplay:10.37,2013-09-19 04:59:00,
2013-09-19 01:04:00,45.9,44.8,30.14,ENE,62,0.0,0.0,96,0.00,CLR,,0.00,WeatherDisplay:10.37,2013-09-19 05:04:00,
2013-09-19 01:09:00,44.3,43.2,30.14,ENE,62,0.0,0.0,96,0.00,CLR,,0.00,WeatherDisplay:10.37,2013-09-19 05:09:00,
2013-09-19 01:14:00,45.3,44.2,30.14,ENE,62,0.0,0.0,96,0.00,CLR,,0.00,WeatherDisplay:10.37,2013-09-19 05:14:00,
2013-09-19 01:19:00,44.0,42.9,30.14,ENE,62,0.0,0.0,96,0.00,CLR,,0.00,WeatherDisplay:10.37,2013-09-19 05:19:00,
2013-09-19 01:24:00,44.8,43.7,30.14,ENE,62,0.0,0.0,96,0.00,CLR,,0.00,WeatherDisplay:10.37,2013-09-19 05:24:00,
2013-09-19 01:29:00,46.0,44.9,30.14,ENE,62,0.0,0.0,96,0.00,CLR,,0.00,WeatherDisplay:10.37,2013-09-19 05:29:00,
2013-09-19 01:34:00,44.5,43.4,30.14,ENE,62,0.0,0.0,96,0.00,CLR,,0.00,WeatherDisplay:10.37,2013-09-19 05:34:00,
2013-09-19 01:39:00,45.9,44.8,30.14,ENE,62,0.0,0.0,96,0.00,CLR,,0.00,WeatherDisplay:10.37,2013-09-19 05:39:00,
2013-09-19 01:44:00,46.6,45.5,30.14,ENE,62,0.0,0.0,96,0.00,CLR,,0.00,WeatherDisplay:10.37,2013-09-19 05:44:00,
2013-09-19 01:49:00,45.4,44.3,30.14,ENE,62,0.0,0.0,96,0.00,CLR,,0.00,WeatherDisplay:10.37,2013-09-19 05:49:00,
2013-09-19 01:54:00,46.2,45.1,30.14,ENE,62,0.0,0.0,96,0.00,CLR,,0.00,WeatherDisplay:10.37,2013-09-19 05:54:00,
2013-09-19 01:59:00,44.5,43.4,30.14,ENE,62,0.0,0.0,96,0.00,CLR,,0.00,WeatherDisplay:10.37,2013-09-19 05:59:00,
2013-09-19 02:04:00,43.7,41.5,30.13,ENE,62,0.0,0.0,92,0.00,CLR,,0.00,WeatherDisplay:10.37,2013-09-19 06:04:00,
2013-09-19 02:09:00,43.7,41.5,30.13,ENE,62,0.0,0.0,92,0.00,CLR,,0.00,WeatherDisplay:10.37,2013-09-19 06:09:00,
2013-09-19 02:14:00,43.3,41.1,30.13,ENE,62,0.0,0.0,92,0.00,CLR,,0.00,WeatherDisplay:10.37,2013-09-19 06:14:00,
2013-09-19 02:19:00,43.2,41.0,30.13,ENE,62,0.0,0.0,92,0.00,CLR,,0.00,WeatherDisplay:10.37,2013-09-19 06:19:00,
2013-09-19 02:24:00,45.5,43.3,30.13,ENE,62,0.0,0.0,92,0.00,CLR,,0.00,WeatherDisplay:10.37,2013-09-19 06:24:00,
2013-09-19 02:29:00,45.6,43.4,30.13,ENE,62,0.0,0.0,92,0.00,CLR,,0.00,WeatherDisplay:10.37,2013-09-19 06:29:00,
2013-09-19 02:34:00,46.6,44.4,30.13,ENE,62,0.0,0.0,92,0.00,CLR,,0.00,WeatherDisplay:10.37,2013-09-19 06:34:00,
2013-09-19 02:39:00,44.5,42.3,30.13,ENE,62,0.0,0.0,92,0.00,CLR,,0.00,WeatherDisplay:10.37,2013-09-19 06:39:00,
2013-09-19 02:44:00,46.3,44.1,30.13,ENE,62,0.0,0.0,92,0.00,CLR,,0.00,WeatherDisplay:10.37,2013-09-19 06:44:00,
2013-09-19 02:49:00,44.2,42.0,30.13,ENE,62,0.0,0.0,92,0.00,CLR,,0.00,WeatherDisplay:10.37,2013-09-19 06:49:00,
2013-09-19 02:54:00,43.4,41.2,30.13,ENE,62,0.0,0.0,92,0.00,CLR,,0.00,WeatherDisplay:10.37,2013-09-19 06:54:00,
2013-09-19 02:59:00,43.3,41.1,30.13,ENE,62,0.0,0.0,92,0.00,CLR,,0.00,WeatherDisplay:10.37,2013-09-19 06:59:00,
2013-09-19 03:04:00,42.9,42.9,30.12,ENE,62,0.0,0.0,100,0.00,CLR,,0.00,WeatherDisplay:10.37,2013-09-19 07:04:00,
2013-09-19 03:09:00,43.3,43.3,30.12,ENE,62,0.0,0.0,100,0.00,CLR,,0.00,WeatherDisplay:10.37,2013-09-19 07:09:00,
2013-09-19 03:14:00,43.9,43.9,30.12,ENE,62,0.0,0.0,100,0.00,CLR,,0.00,WeatherDisplay:10.37,2013-09-19 07:14:00,
2013-09-19 03:19:00,43.3,43.3,30.12,ENE,62,0.0,0.0,100,0.00,CLR,,0.00,WeatherDisplay:10.37,2013-09-19 07:19:00,
2013-09-19 03:24:00,45.5,45.5,30.12,ENE,62,0.0,0.0,100,0.00,CLR,,0.00,WeatherDisplay:10.37,2013-09-19 07:24:00,
2013-09-19 03:29:00,43.3,43.3,30.12,ENE,62,0.0,0.0,100,0.00,CLR,,0.00,WeatherDisplay:10.37,2013-09-19 07:29:00,
2013-09-19 03:34:00,43.1,43.1,30.12,ENE,62,0.0,0.0,100,0.00,CLR,,0.00,WeatherDisplay:10.37,2013-09-19 07:34:00,
2013-09-19 03:39:00,43.1,43.1,30.12,ENE,62,0.0,0.0,100,0.00,CLR,,0.00,WeatherDisplay:10.37,2013-09-19 07:39:00,
2013-09-19 03:44:00,42.7,42.7,30.12,ENE,62,0.0,0.0,100,0.00,CLR,,0.00,WeatherDisplay:10.37,2013-09-19 07:44:00,
2013-09-19 03:49:00,42.6,42.6,30.12,ENE,62,0.0,0.0,100,0.00,CLR,,0.00,WeatherDisplay:10.37,2013-09-19 07:49:00,
2013-09-19 03:54:00,42.2,42.2,30.12,ENE,62,0.0,0.0,100,0.00,CLR,,0.00,WeatherDisplay:10.37,2013-09-19 07:54:00,
2013-09-19 03:59:00,42.2,42.2,30.12,ENE,62,0.0,0.0,100,0.00,CLR,,0.00,WeatherDisplay:10.37,2013-09-19 07:59:00,
2013-09-19 04:04:00,42.0,40.7,30.12,ENE,62,0.0,0.0,95,0.00,CLR,,0.00,WeatherDisplay:10.37,2013-09-19 08:04:00,
2013-09-19 04:09:00,41.9,40.6,30.12,ENE,62,0.0,0.0,95,0.00,CLR,,0.00,WeatherDisplay:10.37,2013-09-19 08:09:00,
2013-09-19 04:14:00,41.8,40.5,30.12,ENE,62,0.0,0.0,95,0.00,CLR,,0.00,WeatherDisplay:10.37,2013-09-19 08:14:00,
2013-09-19 04:19:00,41.9,40.6,30.12,ENE,62,0.0,0.0,95,0.00,CLR,,0.00,WeatherDisplay:10.37,2013-09-19 08:19:00,
2013-09-19 04:24:00,42.2,40.9,30.12,ENE,62,0.0,0.0,95,0.00,CLR,,0.00,WeatherDisplay:10.37,2013-09-19 08:24:00,
2013-09-19 04:29:00,42.3,41.0,30.12,ENE,62,0.0,0.0,95,0.00,CLR,,0.00,WeatherDisplay:10.37,2013-09-19 08:29:00,
2013-09-19 04:34:00,43.1,41.8,30.12,ENE,62,0.0,0.0,95,0.00,CLR,,0.00,WeatherDisplay:10.37,2013-09-19 08:34:00,
2013-09-19 04:39:00,44.1,42.8,30.12,ENE,62,0.0,0.0,95,0.00,CLR,,0.00,WeatherDisplay:10.37,2013-09-19 08:39:00,
2013-09-19 04:44:00,43.0,41.7,30.12,ENE,62,0.0,0.0,95,0.00,CLR,,0.00,WeatherDisplay:10.37,2013-09-19 08:44:00,
2013-09-19 04:49:00,43.6,42.3,30.12,ENE,62,0.0,0.0,95,0.00,CLR,,0.00,WeatherDisplay:10.37,2013-09-19 08:49:00,
2013-09-19 04:54:00,42.9,41.6,30.12,ENE,62,0.0,0.0,95,0.00,CLR,,0.00,WeatherDisplay:10.37,2013-09-19 08:54:00,
2013-09-19 04:59:00,41.9,40.6,30.12,ENE,62,0.0,0.0,95,0.00,CLR,,0.00,WeatherDisplay:10.37,2013-09-19 08:59:00,
2013-09-19 05:04:00,41.9,41.9,30.12,ENE,62,0.0,0.0,100,0.00,CLR,,0.00,WeatherDisplay:10.37,2013-09-19 09:04:00,
2013-09-19 05:09:00,42.1,42.1,30.12,ENE,62,0.0,0.0,100,0.00,CLR,,0.00,WeatherDisplay:10.37,2013-09-19 09:09:00,
2013-09-19 05:14:00,43.8,43.8,30.12,ENE,62,0.0,0.0,100,0.00,CLR,,0.00,WeatherDisplay:10.37,2013-09-19 09:14:00,
2013-09-19 05:19:00,42.4,42.4,30.12,ENE,62,0.0,0.0,100,0.00,CLR,,0.00,WeatherDisplay:10.37,2013-09-19 09:19:00,
2013-09-19 05:24:00,41.7,41.7,30.12,ENE,62,0.0,0.0,100,0.00,CLR,,0.00,WeatherDisplay:10.37,2013-09-19 09:24:00,
2013-09-19 05:29:00,41.1,41.1,30.12,ENE,62,0.0,0.0,100,0.00,CLR,,0.00,WeatherDisplay:10.37,2013-09-19 09:29:00,
2013-09-19 05:34:00,41.3,41.3,30.12,ENE,62,0.0,0.0,100,0.00,CLR,,0.00,WeatherDisplay:10.37,2013-09-19 09:34:00,
2013-09-19 05:39:00,40.8,40.8,30.12,ENE,62,0.0,0.0,100,0.00,CLR,,0.00,WeatherDisplay:10.37,2013-09-19 09:39:00,
2013-09-19 05:44:00,40.7,40.7,30.12,ENE,62,0.0,0.0,100,0.00,CLR,,0.00,WeatherDisplay:10.37,2013-09-19 09:44:00,
2013-09-19 05:49:00,40.8,40.8,30.12,ENE,62,0.0,0.0,100,0.00,CLR,,0.00,WeatherDisplay:10.37,2013-09-19 09:49:00,
2013-09-19 05:54:00,40.8,40.8,30.12,ENE,62,0.0,0.0,100,0.00,CLR,,0.00,WeatherDisplay:10.37,2013-09-19 09:54:00,
2013-09-19 05:59:00,41.3,41.3,30.12,ENE,62,0.0,0.0,100,0.00,CLR,,0.00,WeatherDisplay:10.37,2013-09-19 09:59:00,
2013-09-19 06:04:00,42.9,41.6,30.12,ENE,62,0.0,0.0,95,0.00,CLR,,0.00,WeatherDisplay:10.37,2013-09-19 10:04:00,
2013-09-19 06:09:00,42.1,40.8,30.12,ENE,62,0.0,0.0,95,0.00,CLR,,0.00,WeatherDisplay:10.37,2013-09-19 10:09:00,
2013-09-19 06:14:00,41.6,40.3,30.12,ENE,62,0.0,0.0,95,0.00,CLR,,0.00,WeatherDisplay:10.37,2013-09-19 10:14:00,
2013-09-19 06:19:00,41.9,40.6,30.12,ENE,62,0.0,0.0,95,0.00,CLR,,0.00,WeatherDisplay:10.37,2013-09-19 10:19:00,
2013-09-19 06:24:00,40.9,39.6,30.12,ENE,62,0.0,0.0,95,0.00,CLR,,0.00,WeatherDisplay:10.37,2013-09-19 10:24:00,
2013-09-19 06:29:00,41.6,40.3,30.12,ENE,62,0.0,0.0,95,0.00,CLR,,0.00,WeatherDisplay:10.37,2013-09-19 10:29:00,
2013-09-19 06:34:00,40.8,39.5,30.12,ENE,62,0.0,0.0,95,0.00,CLR,,0.00,WeatherDisplay:10.37,2013-09-19 10:34:00,
2013-09-19 06:39:00,43.9,42.6,30.12,ENE,62,0.0,0.0,95,0.00,CLR,,0.00,WeatherDisplay:10.37,2013-09-19 10:39:00,
2013-09-19 06:44:00,43.1,41.8,30.12,ENE,62,0.0,0.0,95,0.00,CLR,,0.00,WeatherDisplay:10.37,2013-09-19 10:44:00,
2013-09-19 06:49:00,41.9,40.6,30.12,ENE,62,0.0,0.0,95,0.00,CLR,,0.00,WeatherDisplay:10.37,2013-09-19 10:49:00,
2013-09-19 06:54:00,42.3,41.0,30.12,ENE,62,0.0,0.0,95,0.00,CLR,,0.00,WeatherDisplay:10.37,2013-09-19 10:54:00,
2013-09-19 06:59:00,41.4,40.1,30.12,ENE,62,0.0,0.0,95,0.00,CLR,,0.00,WeatherDisplay:10.37,2013-09-19 10:59:00,
2013-09-19 07:04:00,41.8,40.5,30.12,ENE,62,0.0,0.0,95,0.00,CLR,,0.00,WeatherDisplay:10.37,2013-09-19 11:04:00,
2013-09-19 07:09:00,42.2,40.9,30.12,ENE,62,0.0,0.0,95,0.00,CLR,,0.00,WeatherDisplay:10.37,2013-09-19 11:09:00,
2013-09-19 07:14:00,43.2,42.1,30.13,ENE,62,0.0,0.0,96,0.00,CLR,,0.00,WeatherDisplay:10.37,2013-09-19 11:14:00,
2013-09-19 07:19:00,44.4,43.3,30.13,ENE,62,0.0,0.0,96,0.00,CLR,,0.00,WeatherDisplay:10.37,2013-09-19 11:19:00,
2013-09-19 07:24:00,45.8,44.7,30.13,ENE,62,0.0,0.0,96,0.00,CLR,,0.00,WeatherDisplay:10.37,2013-09-19 11:24:00,
2013-09-19 07:29:00,46.1,45.0,30.13,ENE,62,0.0,0.0,96,0.00,CLR,,0.00,WeatherDisplay:10.37,2013-09-19 11:29:00,
2013-09-19 07:34:00,45.5,44.4,30.13,ENE,62,0.0,0.0,96,0.00,CLR,,0.00,WeatherDisplay:10.37,2013-09-19 11:34:00,
2013-09-19 07:39:00,45.9,44.8,30.13,ENE,62,0.0,0.0,96,0.00,CLR,,0.00,WeatherDisplay:10.37,2013-09-19 11:39:00,
2013-09-19 07:44:00,45.6,44.5,30.13,ENE,62,0.0,0.0,96,0.00,CLR,,0.00,WeatherDisplay:10.37,2013-09-19 11:44:00,
2013-09-19 07:49:00,44.8,43.7,30.13,ENE,62,0.0,0.0,96,0.00,CLR,,0.00,WeatherDisplay:10.37,2013-09-19 11:49:00,
2013-09-19 07:54:00,46.4,45.3,30.13,ENE,62,0.0,0.0,96,0.00,CLR,,0.00,WeatherDisplay:10.37,2013-09-19 11:54:00,
2013-09-19 07:59:00,45.9,44.8,30.13,ENE,62,0.0,0.0,96,0.00,CLR,,0.00,WeatherDisplay:10.37,2013-09-19 11:59:00,
2013-09-19 08:04:00,46.0,43.8,30.14,ENE,62,0.0,0.0,92,0.00,CLR,,0.00,WeatherDisplay:10.37,2013-09-19 12:04:00,
2013-09-19 08:09:00,48.0,45.8,30.14,ENE,62,0.0,0.0,92,0.00,CLR,,0.00,WeatherDisplay:10.37,2013-09-19 12:09:00,
2013-09-19 08:14:00,47.1,44.9,30.14,ENE,62,0.0,0.0,92,0.00,CLR,,0.00,WeatherDisplay:10.37,2013-09-19 12:14:00,
2013-09-19 08:19:00,47.3,45.1,30.14,ENE,62,0.0,0.0,92,0.00,CLR,,0.00,WeatherDisplay:10.37,2013-09-19 12:19:00,
2013-09-19 08:24:00,49.9,47.7,30.14,ENE,62,0.0,0.0,92,0.00,CLR,,0.00,WeatherDisplay:10.37,2013-09-19 12:24:00,
2013-09-19 08:29:00,50.0,47.8,30.14,ENE,62,0.0,0.0,92,0.00,CLR,,0.00,WeatherDisplay:10.37,2013-09-19 12:29:00,
2013-09-19 08:34:00,49.1,46.9,30.14,ENE,62,0.0,0.0,92,0.00,CLR,,0.00,WeatherDisplay:10.37,2013-09-19 12:34:00,
2013-09-19 08:39:00,50.5,48.3,30.14,ENE,62,0.0,0.0,92,0.00,CLR,,0.00,WeatherDisplay:10.37,2013-09-19 12:39:00,
2013-09-19 08:44:00,50.7,48.5,30.14,ENE,62,0.0,0.0,92,0.00,CLR,,0.00,WeatherDisplay:10.37,2013-09-19 12:44:00,
2013-09-19 08:49:00,51.1,48.9,30.14,ENE,62,0.0,0.0,92,0.00,CLR,,0.00,WeatherDisplay:10.37,2013-09-19 12:49:00,
2013-09-19 08:54:00,51.5,49.3,30.14,ENE,62,0.0,0.0,92,0.00,CLR,,0.00,WeatherDisplay:10.37,2013-09-19 12:54:00,
2013-09-19 08:59:00,52.0,49.7,30.14,ENE,62,0.0,0.0,92,0.00,CLR,,0.00,WeatherDisplay:10.37,2013-09-19 12:59:00,
2013-09-19 09:04:00,52.7,46.7,30.14,ENE,62,0.0,0.0,80,0.00,CLR,,0.00,WeatherDisplay:10.37,2013-09-19 13:04:00,
2013-09-19 09:09:00,52.5,46.5,30.14,ENE,62,0.0,0.0,80,0.00,CLR,,0.00,WeatherDisplay:10.37,2013-09-19 13:09:00,
2013-09-19 09:14:00,53.3,47.3,30.14,ENE,62,0.0,0.0,80,0.00,CLR,,0.00,WeatherDisplay:10.37,2013-09-19 13:14:00,
2013-09-19 09:19:00,54.7,48.6,30.14,ENE,62,0.0,0.0,80,0.00,CLR,,0.00,WeatherDisplay:10.37,2013-09-19 13:19:00,
2013-09-19 09:24:00,55.6,49.5,30.14,ENE,62,0.0,0.0,80,0.00,CLR,,0.00,WeatherDisplay:10.37,2013-09-19 13:24:00,
2013-09-19 09:29:00,55.7,49.6,30.14,ENE,62,0.0,0.0,80,0.00,CLR,,0.00,WeatherDisplay:10.37,2013-09-19 13:29:00,
2013-09-19 09:34:00,57.1,51.0,30.14,ENE,62,0.0,0.0,80,0.00,CLR,,0.00,WeatherDisplay:10.37,2013-09-19 13:34:00,
2013-09-19 09:39:00,57.3,51.2,30.14,ENE,62,0.0,0.0,80,0.00,CLR,,0.00,WeatherDisplay:10.37,2013-09-19 13:39:00,
2013-09-19 09:44:00,57.5,51.4,30.14,ENE,62,0.0,0.0,80,0.00,CLR,,0.00,WeatherDisplay:10.37,2013-09-19 13:44:00,
2013-09-19 09:49:00,59.1,52.9,30.14,ENE,62,0.0,0.0,80,0.00,CLR,,0.00,WeatherDisplay:10.37,2013-09-19 13:49:00,
2013-09-19 09:54:00,59.4,53.2,30.14,ENE,62,0.0,0.0,80,0.00,CLR,,0.00,WeatherDisplay:10.37,2013-09-19 13:54:00,
2013-09-19 09:59:00,59.3,53.1,30.14,ENE,62,0.0,0.0,80,0.00,CLR,,0.00,WeatherDisplay:10.37,2013-09-19 13:59:00,
2013-09-19 10:04:00,59.6,53.4,30.14,ENE,62,0.0,0.0,80,0.00,CLR,,0.00,WeatherDisplay:10.37,2013-09-19 14:04:00,
2013-09-19 10:09:00,60.4,54.2,30.14,ENE,62,0.0,0.0,80,0.00,CLR,,0.00,WeatherDisplay:10.37,2013-09-19 14:09:00,
2013-09-19 10:14:00,60.3,45.9,30.14,ENE,62,0.0,0.0,59,0.00,CLR,,0.00,WeatherDisplay:10.37,2013-09-19 14:14:00,
2013-09-19 10:19:00,60.9,46.5,30.14,ENE,62,0.0,0.0,59,0.00,CLR,,0.00,WeatherDisplay:10.37,2013-09-19 14:19:00,
2013-09-19 10:24:00,61.6,47.1,30.14,ENE,62,0.0,0.0,59,0.00,CLR,,0.00,WeatherDisplay:10.37,2013-09-19 14:24:00,
2013-09-19 10:29:00,62.0,47.5,30.14,ENE,62,0.0,0.0,59,0.00,CLR,,0.00,WeatherDisplay:10.37,2013-09-19 14:29:00,
2013-09-19 10:34:00,62.5,48.0,30.14,ENE,62,0.0,0.0,59,0.00,CLR,,0.00,WeatherDisplay:10.37,2013-09-19 14:34:00,
2013-09-19 10:39:00,62.8,48.3,30.14,ENE,62,0.0,0.0,59,0.00,CLR,,0.00,WeatherDisplay:10.37,2013-09-19 14:39:00,
2013-09-19 10:44:00,63.4,48.8,30.14,ENE,62,0.0,0.0,59,0.00,CLR,,0.00,WeatherDisplay:10.37,2013-09-19 14:44:00,
2013-09-19 10:49:00,63.5,48.9,30.14,ENE,62,0.0,0.0,59,0.00,CLR,,0.00,WeatherDisplay:10.37,2013-09-19 14:49:00,
2013-09-19 10:54:00,63.9,49.3,30.14,ENE,62,0.0,0.0,59,0.00,CLR,,0.00,WeatherDisplay:10.37,2013-09-19 14:54:00,
2013-09-19 10:59:00,64.5,49.8,30.14,ENE,62,0.0,0.0,59,0.00,CLR,,0.00,WeatherDisplay:10.37,2013-09-19 14:59:00,
2013-09-19 11:04:00,64.8,50.1,30.14,ENE,62,0.0,0.0,59,0.00,CLR,,0.00,WeatherDisplay:10.37,2013-09-19 15:04:00,
2013-09-19 11:09:00,65.5,50.8,30.14,ENE,62,0.0,0.0,59,0.00,CLR,,0.00,WeatherDisplay:10.37,2013-09-19 15:09:00,
2013-09-19 11:14:00,65.7,49.6,30.13,ENE,62,0.0,0.0,56,0.00,CLR,,0.00,WeatherDisplay:10.37,2013-09-19 15:14:00,
2013-09-19 11:19:00,65.7,49.6,30.13,ENE,62,0.0,0.0,56,0.00,CLR,,0.00,WeatherDisplay:10.37,2013-09-19 15:19:00,
2013-09-19 11:24:00,66.0,49.8,30.13,ENE,62,0.0,0.0,56,0.00,CLR,,0.00,WeatherDisplay:10.37,2013-09-19 15:24:00,
2013-09-19 11:29:00,66.7,50.5,30.13,ENE,62,0.0,0.0,56,0.00,CLR,,0.00,WeatherDisplay:10.37,2013-09-19 15:29:00,
2013-09-19 11:34:00,66.9,50.7,30.13,ENE,62,0.0,0.0,56,0.00,CLR,,0.00,WeatherDisplay:10.37,2013-09-19 15:34:00,
2013-09-19 11:39:00,67.3,51.1,30.13,ENE,62,0.0,0.0,56,0.00,CLR,,0.00,WeatherDisplay:10.37,2013-09-19 15:39:00,
2013-09-19 11:44:00,66.9,50.7,30.13,ENE,62,0.0,0.0,56,0.00,CLR,,0.00,WeatherDisplay:10.37,2013-09-19 15:44:00,
2013-09-19 11:49:00,67.5,51.2,30.13,ENE,62,0.0,0.0,56,0.00,CLR,,0.00,WeatherDisplay:10.37,2013-09-19 15:49:00,
2013-09-19 11:54:00,67.9,51.6,30.13,ENE,62,0.0,0.0,56,0.00,CLR,,0.00,WeatherDisplay:10.37,2013-09-19 15:54:00,
2013-09-19 11:59:00,68.2,51.9,30.13,ENE,62,0.0,0.0,56,0.00,CLR,,0.00,WeatherDisplay:10.37,2013-09-19 15:59:00,
2013-09-19 12:04:00,68.3,52.0,30.13,ENE,62,0.0,0.0,56,0.00,CLR,,0.00,WeatherDisplay:10.37,2013-09-19 16:04:00,
2013-09-19 12:09:00,68.1,51.8,30.13,ENE,62,0.0,0.0,56,0.00,CLR,,0.00,WeatherDisplay:10.37,2013-09-19 16:09:00,
2013-09-19 12:14:00,68.5,52.2,30.13,ENE,62,0.0,0.0,56,0.00,CLR,,0.00,WeatherDisplay:10.37,2013-09-19 16:14:00,
2013-09-19 12:19:00,69.0,52.6,30.13,ENE,62,0.0,0.0,56,0.00,CLR,,0.00,WeatherDisplay:10.37,2013-09-19 16:19:00,
2013-09-19 12:24:00,68.7,52.4,30.13,ENE,62,0.0,0.0,56,0.00,CLR,,0.00,WeatherDisplay:10.37,2013-09-19 16:24:00,
2013-09-19 12:29:00,69.8,53.4,30.13,ENE,62,0.0,0.0,56,0.00,CLR,,0.00,WeatherDisplay:10.37,2013-09-19 16:29:00,
2013-09-19 12:34:00,69.3,52.9,30.13,ENE,62,0.0,0.0,56,0.00,CLR,,0.00,WeatherDisplay:10.37,2013-09-19 16:34:00,
2013-09-19 12:39:00,68.6,52.3,30.13,ENE,62,0.0,0.0,56,0.00,CLR,,0.00,WeatherDisplay:10.37,2013-09-19 16:39:00,
2013-09-19 12:44:00,70.1,53.7,30.13,ENE,62,0.0,0.0,56,0.00,CLR,,0.00,WeatherDisplay:10.37,2013-09-19 16:44:00,
2013-09-19 12:49:00,69.9,53.5,30.13,ENE,62,0.0,0.0,56,0.00,CLR,,0.00,WeatherDisplay:10.37,2013-09-19 16:49:00,
2013-09-19 12:54:00,70.6,54.1,30.13,ENE,62,0.0,0.0,56,0.00,CLR,,0.00,WeatherDisplay:10.37,2013-09-19 16:54:00,
2013-09-19 12:59:00,70.2,53.8,30.13,ENE,62,0.0,0.0,56,0.00,CLR,,0.00,WeatherDisplay:10.37,2013-09-19 16:59:00,
2013-09-19 13:04:00,70.1,53.7,30.13,ENE,62,0.0,0.0,56,0.00,CLR,,0.00,WeatherDisplay:10.37,2013-09-19 17:04:00,
2013-09-19 13:09:00,70.2,53.8,30.13,ENE,62,0.0,0.0,56,0.00,CLR,,0.00,WeatherDisplay:10.37,2013-09-19 17:09:00,
2013-09-19 13:14:00,69.7,53.3,30.13,ENE,62,0.0,0.0,56,0.00,CLR,,0.00,WeatherDisplay:10.37,2013-09-19 17:14:00,
2013-09-19 13:19:00,70.5,54.0,30.13,ENE,62,0.0,0.0,56,0.00,CLR,,0.00,WeatherDisplay:10.37,2013-09-19 17:19:00,
2013-09-19 13:24:00,70.4,54.0,30.13,ENE,62,0.0,0.0,56,0.00,CLR,,0.00,WeatherDisplay:10.37,2013-09-19 17:24:00,
2013-09-19 13:29:00,70.9,54.4,30.13,ENE,62,0.0,0.0,56,0.00,CLR,,0.00,WeatherDisplay:10.37,2013-09-19 17:29:00,
2013-09-19 13:34:00,70.0,53.6,30.13,ENE,62,0.0,0.0,56,0.00,CLR,,0.00,WeatherDisplay:10.37,2013-09-19 17:34:00,
2013-09-19 13:39:00,69.5,53.1,30.13,ENE,62,0.0,0.0,56,0.00,CLR,,0.00,WeatherDisplay:10.37,2013-09-19 17:39:00,
2013-09-19 13:44:00,69.3,52.9,30.13,ENE,62,0.0,0.0,56,0.00,CLR,,0.00,WeatherDisplay:10.37,2013-09-19 17:44:00,
2013-09-19 13:49:00,69.6,53.2,30.13,ENE,62,0.0,0.0,56,0.00,CLR,,0.00,WeatherDisplay:10.37,2013-09-19 17:49:00,
2013-09-19 13:54:00,70.1,53.7,30.13,ENE,62,0.0,0.0,56,0.00,CLR,,0.00,WeatherDisplay:10.37,2013-09-19 17:54:00,
2013-09-19 13:59:00,69.8,53.4,30.13,ENE,62,0.0,0.0,56,0.00,CLR,,0.00,WeatherDisplay:10.37,2013-09-19 17:59:00,
2013-09-19 14:04:00,69.8,53.4,30.13,ENE,62,0.0,0.0,56,0.00,CLR,,0.00,WeatherDisplay:10.37,2013-09-19 18:04:00,
2013-09-19 14:09:00,69.7,53.3,30.13,ENE,62,0.0,0.0,56,0.00,CLR,,0.00,WeatherDisplay:10.37,2013-09-19 18:09:00,
2013-09-19 14:14:00,69.7,53.3,30.13,ENE,62,0.0,0.0,56,0.00,CLR,,0.00,WeatherDisplay:10.37,2013-09-19 18:14:00,
2013-09-19 14:19:00,70.2,53.8,30.13,ENE,62,0.0,0.0,56,0.00,CLR,,0.00,WeatherDisplay:10.37,2013-09-19 18:19:00,
2013-09-19 14:24:00,70.1,53.7,30.13,ENE,62,0.0,0.0,56,0.00,CLR,,0.00,WeatherDisplay:10.37,2013-09-19 18:24:00,
2013-09-19 14:29:00,70.9,54.4,30.13,ENE,62,0.0,0.0,56,0.00,CLR,,0.00,WeatherDisplay:10.37,2013-09-19 18:29:00,
2013-09-19 14:34:00,69.6,53.2,30.13,ENE,62,0.0,0.0,56,0.00,CLR,,0.00,WeatherDisplay:10.37,2013-09-19 18:34:00,
2013-09-19 14:39:00,69.7,53.3,30.13,ENE,62,0.0,0.0,56,0.00,CLR,,0.00,WeatherDisplay:10.37,2013-09-19 18:39:00,
2013-09-19 14:44:00,70.1,53.7,30.13,ENE,62,0.0,0.0,56,0.00,CLR,,0.00,WeatherDisplay:10.37,2013-09-19 18:44:00,
2013-09-19 14:49:00,69.5,53.1,30.13,ENE,62,0.0,0.0,56,0.00,CLR,,0.00,WeatherDisplay:10.37,2013-09-19 18:49:00,
2013-09-19 14:54:00,69.6,53.2,30.13,ENE,62,0.0,0.0,56,0.00,CLR,,0.00,WeatherDisplay:10.37,2013-09-19 18:54:00,
2013-09-19 14:59:00,69.5,53.1,30.13,ENE,62,0.0,0.0,56,0.00,CLR,,0.00,WeatherDisplay:10.37,2013-09-19 18:59:00,
2013-09-19 15:04:00,69.8,53.4,30.13,ENE,62,0.0,0.0,56,0.00,CLR,,0.00,WeatherDisplay:10.37,2013-09-19 19:04:00,
2013-09-19 15:09:00,69.8,53.4,30.13,ENE,62,0.0,0.0,56,0.00,CLR,,0.00,WeatherDisplay:10.37,2013-09-19 19:09:00,
2013-09-19 15:14:00,69.9,53.5,30.13,ENE,62,0.0,0.0,56,0.00,CLR,,0.00,WeatherDisplay:10.37,2013-09-19 19:14:00,
2013-09-19 15:19:00,69.6,53.2,30.13,ENE,62,0.0,0.0,56,0.00,CLR,,0.00,WeatherDisplay:10.37,2013-09-19 19:19:00,
2013-09-19 15:24:00,70.4,54.0,30.13,ENE,62,0.0,0.0,56,0.00,CLR,,0.00,WeatherDisplay:10.37,2013-09-19 19:24:00,
2013-09-19 15:29:00,69.9,53.5,30.13,ENE,62,0.0,0.0,56,0.00,CLR,,0.00,WeatherDisplay:10.37,2013-09-19 19:29:00,
2013-09-19 15:34:00,69.7,53.3,30.13,ENE,62,0.0,0.0,56,0.00,CLR,,0.00,WeatherDisplay:10.37,2013-09-19 19:34:00,
2013-09-19 15:39:00,69.9,53.5,30.13,ENE,62,0.0,0.0,56,0.00,CLR,,0.00,WeatherDisplay:10.37,2013-09-19 19:39:00,
2013-09-19 15:44:00,70.0,53.6,30.13,ENE,62,0.0,0.0,56,0.00,CLR,,0.00,WeatherDisplay:10.37,2013-09-19 19:44:00,
2013-09-19 15:49:00,70.5,54.0,30.13,ENE,62,0.0,0.0,56,0.00,CLR,,0.00,WeatherDisplay:10.37,2013-09-19 19:49:00,
2013-09-19 15:54:00,70.3,53.9,30.13,ENE,62,0.0,0.0,56,0.00,CLR,,0.00,WeatherDisplay:10.37,2013-09-19 19:54:00,
2013-09-19 15:59:00,70.1,53.7,30.13,ENE,62,0.0,0.0,56,0.00,CLR,,0.00,WeatherDisplay:10.37,2013-09-19 19:59:00,
2013-09-19 16:04:00,70.4,54.0,30.13,ENE,62,0.0,0.0,56,0.00,CLR,,0.00,WeatherDisplay:10.37,2013-09-19 20:04:00,
2013-09-19 16:09:00,69.9,53.5,30.13,ENE,62,0.0,0.0,56,0.00,CLR,,0.00,WeatherDisplay:10.37,2013-09-19 20:09:00,
2013-09-19 16:14:00,69.6,53.2,30.13,ENE,62,0.0,0.0,56,0.00,CLR,,0.00,WeatherDisplay:10.37,2013-09-19 20:14:00,
2013-09-19 16:19:00,69.7,53.3,30.13,ENE,62,0.0,0.0,56,0.00,CLR,,0.00,WeatherDisplay:10.37,2013-09-19 20:19:00,
2013-09-19 16:24:00,70.5,54.0,30.13,ENE,62,0.0,0.0,56,0.00,CLR,,0.00,WeatherDisplay:10.37,2013-09-19 20:24:00,
2013-09-19 16:29:00,69.9,53.5,30.13,ENE,62,0.0,0.0,56,0.00,CLR,,0.00,WeatherDisplay:10.37,2013-09-19 20:29:00,
2013-09-19 16:34:00,69.7,53.3,30.13,ENE,62,0.0,0.0,56,0.00,CLR,,0.00,WeatherDisplay:10.37,2013-09-19 20:34:00,
2013-09-19 16:39:00,69.4,53.0,30.13,ENE,62,0.0,0.0,56,0.00,CLR,,0.00,WeatherDisplay:10.37,2013-09-19 20:39:00,
2013-09-19 16:44:00,69.3,52.9,30.13,ENE,62,0.0,0.0,56,0.00,CLR,,0.00,WeatherDisplay:10.37,2013-09-19 20:44:00,
2013-09-19 16:49:00,69.3,52.9,30.13,ENE,62,0.0,0.0,56,0.00,CLR,,0.00,WeatherDisplay:10.37,2013-09-19 20:49:00,
2013-09-19 16:54:00,69.0,52.6,30.13,ENE,62,0.0,0.0,56,0.00,CLR,,0.00,WeatherDisplay:10.37,2013-09-19 20:54:00,
2013-09-19 16:59:00,68.9,52.6,30.13,ENE,62,0.0,0.0,56,0.00,CLR,,0.00,WeatherDisplay:10.37,2013-09-19 20:59:00,
2013-09-19 17:04:00,69.0,52.6,30.13,ENE,62,0.0,0.0,56,0.00,CLR,,0.00,WeatherDisplay:10.37,2013-09-19 21:04:00,
2013-09-19 17:09:00,68.9,52.6,30.13,ENE,62,0.0,0.0,56,0.00,CLR,,0.00,WeatherDisplay:10.37,2013-09-19 21:09:00,
2013-09-19 17:14:00,68.8,52.5,30.13,ENE,62,0.0,0.0,56,0.00,CLR,,0.00,WeatherDisplay:10.37,2013-09-19 21:14:00,
2013-09-19 17:19:00,68.8,52.5,30.13,ENE,62,0.0,0.0,56,0.00,CLR,,0.00,WeatherDisplay:10.37,2013-09-19 21:19:00,
2013-09-19 17:24:00,68.5,52.2,30.13,ENE,62,0.0,0.0,56,0.00,CLR,,0.00,WeatherDisplay:10.37,2013-09-19 21:24:00,
2013-09-19 17:29:00,68.5,52.2,30.13,ENE,62,0.0,0.0,56,0.00,CLR,,0.00,WeatherDisplay:10.37,2013-09-19 21:29:00,
2013-09-19 17:34:00,68.4,52.1,30.13,ENE,62,0.0,0.0,56,0.00,CLR,,0.00,WeatherDisplay:10.37,2013-09-19 21:34:00,
2013-09-19 17:39:00,68.1,51.8,30.13,ENE,62,0.0,0.0,56,0.00,CLR,,0.00,WeatherDisplay:10.37,2013-09-19 21:39:00,
2013-09-19 17:44:00,67.8,51.5,30.13,ENE,62,0.0,0.0,56,0.00,CLR,,0.00,WeatherDisplay:10.37,2013-09-19 21:44:00,
2013-09-19 17:49:00,68.1,51.8,30.13,ENE,62,0.0,0.0,56,0.00,CLR,,0.00,WeatherDisplay:10.37,2013-09-19 21:49:00,
2013-09-19 17:54:00,68.0,51.7,30.13,ENE,62,0.0,0.0,56,0.00,CLR,,0.00,WeatherDisplay:10.37,2013-09-19 21:54:00,
2013-09-19 17:59:00,67.9,51.6,30.13,ENE,62,0.0,0.0,56,0.00,CLR,,0.00,WeatherDisplay:10.37,2013-09-19 21:59:00,
2013-09-19 18:04:00,67.3,51.1,30.13,ENE,62,0.0,0.0,56,0.00,CLR,,0.00,WeatherDisplay:10.37,2013-09-19 22:04:00,
2013-09-19 18:09:00,66.8,50.6,30.13,ENE,62,0.0,0.0,56,0.00,CLR,,0.00,WeatherDisplay:10.37,2013-09-19 22:09:00,
2013-09-19 18:14:00,66.2,50.0,30.13,ENE,62,0.0,0.0,56,0.00,CLR,,0.00,WeatherDisplay:10.37,2013-09-19 22:14:00,
2013-09-19 18:19:00,65.8,49.7,30.13,ENE,62,0.0,0.0,56,0.00,CLR,,0.00,WeatherDisplay:10.37,2013-09-19 22:19:00,
2013-09-19 18:24:00,65.0,48.9,30.13,ENE,62,0.0,0.0,56,0.00,CLR,,0.00,WeatherDisplay:10.37,2013-09-19 22:24:00,
2013-09-19 18:29:00,63.7,47.7,30.13,ENE,62,0.0,0.0,56,0.00,CLR,,0.00,WeatherDisplay:10.37,2013-09-19 22:29:00,
2013-09-19 18:34:00,63.6,47.6,30.13,ENE,62,0.0,0.0,56,0.00,CLR,,0.00,WeatherDisplay:10.37,2013-09-19 22:34:00,
2013-09-19 18:39:00,62.5,46.6,30.13,ENE,62,0.0,0.0,56,0.00,CLR,,0.00,WeatherDisplay:10.37,2013-09-19 22:39:00,
2013-09-19 18:44:00,62.2,46.3,30.13,ENE,62,0.0,0.0,56,0.00,CLR,,0.00,WeatherDisplay:10.37,2013-09-19 22:44:00,
2013-09-19 18:49:00,61.7,45.8,30.13,ENE,62,0.0,0.0,56,0.00,CLR,,0.00,WeatherDisplay:10.37,2013-09-19 22:49:00,
2013-09-19 18:54:00,61.3,45.5,30.13,ENE,62,0.0,0.0,56,0.00,CLR,,0.00,WeatherDisplay:10.37,2013-09-19 22:54:00,
2013-09-19 18:59:00,60.5,44.7,30.13,ENE,62,0.0,0.0,56,0.00,CLR,,0.00,WeatherDisplay:10.37,2013-09-19 22:59:00,
2013-09-19 19:04:00,60.7,44.9,30.13,ENE,62,0.0,0.0,56,0.00,CLR,,0.00,WeatherDisplay:10.37,2013-09-19 23:04:00,
2013-09-19 19:09:00,60.4,44.6,30.13,ENE,62,0.0,0.0,56,0.00,CLR,,0.00,WeatherDisplay:10.37,2013-09-19 23:09:00,
2013-09-19 19:14:00,59.7,44.0,30.13,ENE,62,0.0,0.0,56,0.00,CLR,,0.00,WeatherDisplay:10.37,2013-09-19 23:14:00,
2013-09-19 19:19:00,59.7,44.0,30.13,ENE,62,0.0,0.0,56,0.00,CLR,,0.00,WeatherDisplay:10.37,2013-09-19 23:19:00,
2013-09-19 19:24:00,59.4,43.7,30.13,ENE,62,0.0,0.0,56,0.00,CLR,,0.00,WeatherDisplay:10.37,2013-09-19 23:24:00,
2013-09-19 19:29:00,58.7,43.0,30.13,ENE,62,0.0,0.0,56,0.00,CLR,,0.00,WeatherDisplay:10.37,2013-09-19 23:29:00,
2013-09-19 19:34:00,58.9,43.2,30.13,ENE,62,0.0,0.0,56,0.00,CLR,,0.00,WeatherDisplay:10.37,2013-09-19 23:34:00,
2013-09-19 19:39:00,58.5,42.8,30.13,ENE,62,0.0,0.0,56,0.00,CLR,,0.00,WeatherDisplay:10.37,2013-09-19 23:39:00,
2013-09-19 19:44:00,58.3,42.7,30.13,ENE,62,0.0,0.0,56,0.00,CLR,,0.00,WeatherDisplay:10.37,2013-09-19 23:44:00,
2013-09-19 19:49:00,58.5,42.8,30.13,ENE,62,0.0,0.0,56,0.00,CLR,,0.00,WeatherDisplay:10.37,2013-09-19 23:49:00,
2013-09-19 19:54:00,58.0,42.4,30.13,ENE,62,0.0,0.0,56,0.00,CLR,,0.00,WeatherDisplay:10.37,2013-09-19 23:54:00,
2013-09-19 19:59:00,58.1,42.5,30.13,ENE,62,0.0,0.0,56,0.00,CLR,,0.00,WeatherDisplay:10.37,2013-09-19 23:59:00,
2013-09-19 20:04:00,57.6,42.0,30.13,ENE,62,0.0,0.0,56,0.00,CLR,,0.00,WeatherDisplay:10.37,2013-09-20 00:04:00,
2013-09-19 20:09:00,56.7,41.2,30.13,ENE,62,0.0,0.0,56,0.00,CLR,,0.00,WeatherDisplay:10.37,2013-09-20 00:09:00,
2013-09-19 20:14:00,57.1,41.5,30.13,ENE,62,0.0,0.0,56,0.00,CLR,,0.00,WeatherDisplay:10.37,2013-09-20 00:14:00,
2013-09-19 20:19:00,57.6,42.0,30.13,ENE,62,0.0,0.0,56,0.00,CLR,,0.00,WeatherDisplay:10.37,2013-09-20 00:19:00,
2013-09-19 20:24:00,56.8,41.3,30.13,ENE,62,0.0,0.0,56,0.00,CLR,,0.00,WeatherDisplay:10.37,2013-09-20 00:24:00,
2013-09-19 20:29:00,56.6,41.1,30.13,ENE,62,0.0,0.0,56,0.00,CLR,,0.00,WeatherDisplay:10.37,2013-09-20 00:29:00,
2013-09-19 20:34:00,55.7,40.2,30.13,ENE,62,0.0,0.0,56,0.00,CLR,,0.00,WeatherDisplay:10.37,2013-09-20 00:34:00,
2013-09-19 20:39:00,55.5,40.0,30.13,ENE,62,0.0,0.0,56,0.00,CLR,,0.00,WeatherDisplay:10.37,2013-09-20 00:39:00,
2013-09-19 20:44:00,55.9,40.4,30.13,ENE,62,0.0,0.0,56,0.00,CLR,,0.00,WeatherDisplay:10.37,2013-09-20 00:44:00,
2013-09-19 20:49:00,55.4,40.0,30.13,ENE,62,0.0,0.0,56,0.00,CLR,,0.00,WeatherDisplay:10.37,2013-09-20 00:49:00,
2013-09-19 20:54:00,54.7,39.3,30.13,ENE,62,0.0,0.0,56,0.00,CLR,,0.00,WeatherDisplay:10.37,2013-09-20 00:54:00,
2013-09-19 20:59:00,55.8,40.3,30.13,ENE,62,0.0,0.0,56,0.00,CLR,,0.00,WeatherDisplay:10.37,2013-09-20 00:59:00,
2013-09-19 21:04:00,55.7,55.7,30.06,ENE,62,0.0,0.0,100,0.00,CLR,,0.00,WeatherDisplay:10.37,2013-09-20 01:04:00,
2013-09-19 21:09:00,54.9,54.9,30.06,ENE,62,0.0,0.0,100,0.00,CLR,,0.00,WeatherDisplay:10.37,2013-09-20 01:09:00,
2013-09-19 21:14:00,54.6,54.6,30.06,ENE,62,0.0,0.0,100,0.00,CLR,,0.00,WeatherDisplay:10.37,2013-09-20 01:14:00,
2013-09-19 21:19:00,54.6,54.6,30.06,ENE,62,0.0,0.0,100,0.00,CLR,,0.00,WeatherDisplay:10.37,2013-09-20 01:19:00,
2013-09-19 21:24:00,53.5,53.5,30.06,ENE,62,0.0,0.0,100,0.00,CLR,,0.00,WeatherDisplay:10.37,2013-09-20 01:24:00,
2013-09-19 21:29:00,53.8,53.8,30.06,ENE,62,0.0,0.0,100,0.00,CLR,,0.00,WeatherDisplay:10.37,2013-09-20 01:29:00,
2013-09-19 21:34:00,53.5,53.5,30.06,ENE,62,0.0,0.0,100,0.00,CLR,,0.00,WeatherDisplay:10.37,2013-09-20 01:34:00,
2013-09-19 21:39:00,54.3,54.3,30.06,ENE,62,0.0,0.0,100,0.00,CLR,,0.00,WeatherDisplay:10.37,2013-09-20 01:39:00,
2013-09-19 21:44:00,54.7,54.7,30.06,ENE,62,0.0,0.0,100,0.00,CLR,,0.00,WeatherDisplay:10.37,2013-09-20 01:44:00,
2013-09-19 21:49:00,53.5,53.5,30.06,ENE,62,0.0,0.0,100,0.00,CLR,,0.00,WeatherDisplay:10.37,2013-09-20 01:49:00,
2013-09-19 21:54:00,53.0,53.0,30.06,ENE,62,0.0,0.0,100,0.00,CLR,,0.00,WeatherDisplay:10.37,2013-09-20 01:54:00,
2013-09-19 21:59:00,52.9,52.9,30.06,ENE,62,0.0,0.0,100,0.00,CLR,,0.00,WeatherDisplay:10.37,2013-09-20 01:59:00,
2013-09-19 22:04:00,52.5,52.5,30.06,ENE,62,0.0,0.0,100,0.00,CLR,,0.00,WeatherDisplay:10.37,2013-09-20 02:04:00,
2013-09-19 22:09:00,52.5,52.5,30.06,ENE,62,0.0,0.0,100,0.00,CLR,,0.00,WeatherDisplay:10.37,2013-09-20 02:09:00,
2013-09-19 22:14:00,53.6,53.6,30.06,ENE,62,0.0,0.0,100,0.00,CLR,,0.00,WeatherDisplay:10.37,2013-09-20 02:14:00,
2013-09-19 22:19:00,54.4,54.4,30.06,ENE,62,0.0,0.0,100,0.00,CLR,,0.00,WeatherDisplay:10.37,2013-09-20 02:19:00,
2013-09-19 22:24:00,52.7,52.7,30.06,ENE,62,0.0,0.0,100,0.00,CLR,,0.00,WeatherDisplay:10.37,2013-09-20 02:24:00,
2013-09-19 22:29:00,52.5,52.5,30.06,ENE,62,0.0,0.0,100,0.00,CLR,,0.00,WeatherDisplay:10.37,2013-09-20 02:29:00,
2013-09-19 22:34:00,52.3,52.3,30.06,ENE,62,0.0,0.0,100,0.00,CLR,,0.00,WeatherDisplay:10.37,2013-09-20 02:34:00,
2013-09-19 22:39:00,52.7,52.7,30.06,ENE,62,0.0,0.0,100,0.00,CLR,,0.00,WeatherDisplay:10.37,2013-09-20 02:39:00,
2013-09-19 22:44:00,53.6,53.6,30.06,ENE,62,0.0,0.0,100,0.00,CLR,,0.00,WeatherDisplay:10.37,2013-09-20 02:44:00,
2013-09-19 22:49:00,51.8,51.8,30.06,ENE,62,0.0,0.0,100,0.00,CLR,,0.00,WeatherDisplay:10.37,2013-09-20 02:49:00,
2013-09-19 22:54:00,52.0,52.0,30.06,ENE,62,0.0,0.0,100,0.00,CLR,,0.00,WeatherDisplay:10.37,2013-09-20 02:54:00,
2013-09-19 22:59:00,51.2,51.2,30.06,ENE,62,0.0,0.0,100,0.00,CLR,,0.00,WeatherDisplay:10.37,2013-09-20 02:59:00,
2013-09-19 23:04:00,52.0,52.0,30.06,ENE,62,0.0,0.0,100,0.00,CLR,,0.00,WeatherDisplay:10.37,2013-09-20 03:04:00,
2013-09-19 23:09:00,53.5,53.5,30.06,ENE,62,0.0,0.0,100,0.00,CLR,,0.00,WeatherDisplay:10.37,2013-09-20 03:09:00,
2013-09-19 23:14:00,54.1,53.0,30.06,ENE,62,0.0,0.0,96,0.00,CLR,,0.00,WeatherDisplay:10.37,2013-09-20 03:14:00,
2013-09-19 23:19:00,50.9,49.8,30.06,ENE,62,0.0,0.0,96,0.00,CLR,,0.00,WeatherDisplay:10.37,2013-09-20 03:19:00,
2013-09-19 23:24:00,50.6,49.5,30.06,ENE,62,0.0,0.0,96,0.00,CLR,,0.00,WeatherDisplay:10.37,2013-09-20 03:24:00,
2013-09-19 23:29:00,50.9,49.8,30.06,ENE,62,0.0,0.0,96,0.00,CLR,,0.00,WeatherDisplay:10.37,2013-09-20 03:29:00,
2013-09-19 23:34:00,51.1,50.0,30.06,ENE,62,0.0,0.0,96,0.00,CLR,,0.00,WeatherDisplay:10.37,2013-09-20 03:34:00,
2013-09-19 23:39:00,50.8,49.7,30.06,ENE,62,0.0,0.0,96,0.00,CLR,,0.00,WeatherDisplay:10.37,2013-09-20 03:39:00,
2013-09-19 23:44:00,52.1,51.0,30.06,ENE,62,0.0,0.0,96,0.00,CLR,,0.00,WeatherDisplay:10.37,2013-09-20 03:44:00,
2013-09-19 23:49:00,50.4,49.3,30.06,ENE,62,0.0,0.0,96,0.00,CLR,,0.00,WeatherDisplay:10.37,2013-09-20 03:49:00,
2013-09-19 23:54:00,51.8,50.7,30.06,ENE,62,0.0,0.0,96,0.00,CLR,,0.00,WeatherDisplay:10.37,2013-09-20 03:54:00,
2013-09-19 23:59:00,51.2,50.1,30.06,ENE,62,0.0,0.0,96,0.00,CLR,,0.00,WeatherDisplay:10.37,2013-09-20 03:59:00,